STARLINK-32643, 62233

Orbit data source: Space-Track

STARLINK-32643, 62233 is a payload satellite owned by SpaceX/Seattle (US) in LEO that was launched on Thu, 05 Dec 2024 UTC via an FALCON 9 launch vehicle from the Air Force Western Test Range (AFWTR). Payloads include a variety of satellites, spacecraft, and rockets equipped with specific instruments for various scientific and technological missions. These include communications satellites like Starlink; space stations such as the ISS; scientific satellites like the Hubble; Earth observation satellites from companies like Planet Labs, Umbra, and HawkEye 360; GPS; miniature CubeSats for education and research; and military/defense satellites.

Loading next visibility...
STARLINK-32643 details
Identifier
62233, 2024-231R
Orbit
LEO
Last TLE update14 hours ago
Origin
Flag of USSpaceX/Seattle (US)
ManufacturerSpaceX/Seattle
MissionOperational spacecraft
Bus & MotorSTARLINK V2M, Unknown motor
Mass730 kg wet, ~700 kg dry
Launch date (UTC)
2024-12-05 (2 months ago)
Launch vehicle
FALCON 9
Launch site
Air Force Western Test Range (AFWTR)
Object type
Payload
Rocket body
Debris
Shape & HBRUnknown
Radar Cross SectionLarge (>1 m²)

Expand to show TLE details & history

TLE from 14 hours ago
0 STARLINK-32643
1 62233U 24231R   25025.25376699  .00014450  00000-0  37000-3 0  9996
2 62233  53.1599 321.8469 0003296 159.2860 200.8279 15.39663213  9156
Epoch: 2025-01-25T06:05Z
Definitive object data (Epoch: 2025-01-25T06:05:25.467Z)
Latitude-0.00005°
Longitude105.68552°
Altitude450.11 km
Speed7.642 km/s
True Right ascension21h 27m 23s
True Declination0° 00' 00"
Sunlit
Object was in daylight at TLE epoch
Visualization TLE readout
Latitude-45.5812°
Longitude-27.47703°
Altitude462.194 km
Speed7.635 km/s
Apparent Right ascension10h 44m 42s
Apparent Declination-46° 00' 56"
Sunlit
Object is in daylight
Visualization observer readout
Local Sidereal Time20:57:11
Azimuth243.814° WSW
Elevation-69.52°
Doppler factor1
Orbital elements
Apogee altitude449.612 km
Perigee altitude445.112 km
Semi-major axis6,825.499 km
Eccentricity0.0003296
Inclination53.1599°
RAAN321.8469°
Arg. of periapsis159.286°
True anomaly200.81448°
Mean anomaly200.8279°
Eccentric anomaly200.82119°
Mean motion3.84894 °/min
BSTAR0.00037
Orbital period93.53 mins
Loading maneuver chart data...
Loading historical data...
Loading historical data...
Loading historical data...
Loading historical data...
Loading historical data...
Loading historical data...
Loading historical data...

STARLINK-32643 Visibility forecast

Observer location: undefined°, undefined

Span
Click to sort rows by Start time (UTC) header in descending order
Start Az.
Max El. time (UTC)
Max El. Az.
Max El.
End time (UTC)
End Az.
5 mins2025-01-25 21:50:13.318Z197.027° SSW2025-01-25 21:52:13.318Z153.766° SSE30.621°2025-01-25 21:55:13.318Z69.504° E
4 mins2025-01-25 23:28:13.318Z285.313° WNW2025-01-25 23:30:13.318Z337.124° NNW24.193°2025-01-25 23:32:13.318Z21.961° NNE
5 mins2025-01-26 04:23:13.318Z339.631° N2025-01-26 04:25:13.318Z39.97° NE29.029°2025-01-26 04:28:13.318Z99.267° ESE
|